Cloud_Cover
95 57 79 39 5 55 72 62 98 87 24 10 5 4 10 0 4 2 5 5 4 5 9 8 5 7 5 0 0 0 0 0 0 0 0 0 0 0 0 0 0 0 0 0 0 2 24 0 0
65 92 82 8 46 10 82 6 5 4 12 3 5 15 38 2 5 5 5 5 0 1 7 5 5 4 5 0 0 0 0 0 0 0 0 0 0 0 0 0 0 0 0 0 0 6 21 25 4
70 29 50 5 5 48 87 18 5 5 5 4 4 86 6 5 5 5 5 0 5 0 1 1 2 1 0 0 0 0 0 0 0 0 0 0 0 0 0 0 0 0 0 0 0 1 7 19 12
100 75 72 44 5 32 100 99 75 5 5 5 24 22 8 3 5 9 5 5 0 0 0 2 3 0 2 0 0 0 0 0 0 0 0 0 0 0 0 0 0 0 0 0 0 8 10 0 0
79 17 37 99 33 51 9 29 6 4 5 2 5 43 25 4 17 11 5 5 0 0 0 4 5 4 2 0 0 0 0 0 0 0 0 0 0 0 0 0 0 4 5 5 31 6 5 5 0
49 100 48 37 6 51 52 5 5 3 5 15 78 52 4 5 11 42 5 0 5 4 1 5 6 5 3 0 0 0 0 0 0 0 0 0 0 0 2 8 8 4 9 17 37 82 20 5 49
100 95 100 100 98 100 31 30 15 100 100 100 94 5 5 35 69 30 5 4 5 5 5 5 25 5 8 0 0 0 0 0 0 0 0 0 0 0 0 0 0 1 0 3 21 37 100 91 58
99 98 100 100 100 100 68 33 85 100 100 100 4 4 9 65 7 5 31 3 5 5 5 47 28 5 1 0 0 0 0 0 0 0 0 0 2 0 0 0 0 0 0 5 5 5 6 32 100
74 20 89 100 100 100 47 12 83 11 82 100 2 5 5 18 5 5 5 5 5 5 27 81 5 5 5 0 0 1 0 0 0 0 0 0 0 0 0 0 0 0 0 0 4 7 71 77 85
96 83 100 100 71 92 95 15 51 7 71 100 6 5 3 5 1 5 5 5 5 64 94 32 5 5 5 5 5 0 0 0 0 0 0 0 0 0 0 0 0 0 0 0 2 0 1 3 49
80 46 63 91 81 100 16 53 23 86 100 100 7 5 80 5 5 4 5 5 5 94 86 5 5 5 5 5 5 1 0 1 0 0 0 0 0 10 5 18 21 19 15 0 0 25 24 92 90
21 56 60 85 100 92 78 18 99 87 69 100 44 100 86 5 5 5 5 5 5 5 68 5 5 5 15 5 1 0 0 5 0 0 0 0 3 30 28 20 29 96 22 1 17 54 98 51 68
8 7 5 45 59 49 90 59 90 87 86 100 20 100 29 5 5 5 1 5 5 81 100 7 1 4 22 5 0 2 1 0 0 0 0 0 1 16 63 79 97 100 98 58 43 88 79 100 100
100 85 5 45 89 58 34 14 38 96 100 69 20 100 30 5 5 3 4 5 93 100 90 1 3 5 4 5 0 0 0 0 0 0 0 0 0 20 81 95 98 5 100 80 97 48 97 78 93
2 8 12 50 100 100 97 27 95 88 100 63 5 12 9 5 5 5 51 100 100 100 0 0 0 10 5 0 0 0 0 0 0 0 0 0 0 38 58 14 94 60 49 92 34 26 59 45 43
5 11 52 96 91 100 100 97 100 99 70 5 6 6 8 92 99 73 94 100 100 5 0 0 4 3 0 0 0 1 0 0 0 0 0 1 25 81 46 57 86 100 96 82 68 92 43 94 68
0 10 3 6 49 100 46 62 96 59 82 28 2 16 99 100 100 100 100 100 77 0 0 0 0 0 0 0 0 4 0 0 0 0 0 0 24 31 49 79 50 84 10 100 100 78 77 56 82
1 2 0 1 11 5 0 1 28 5 26 0 0 51 100 100 100 100 100 100 1 2 0 0 0 0 0 2 0 0 0 0 0 0 0 0 32 39 91 86 53 39 100 64 99 31 61 57 96
0 5 5 5 0 4 69 1 0 1 5 0 0 0 80 100 100 22 20 0 5 0 0 0 0 5 5 5 5 1 0 0 0 0 0 3 42 34 100 98 94 95 53 43 99 97 90 85 67
5 6 0 0 0 62 7 4 0 0 0 0 0 0 13 3 0 0 0 3 0 0 0 0 5 5 48 3 1 1 0 0 0 0 9 20 42 53 71 85 68 59 16 26 33 94 100 93 98
0 0 3 26 53 74 1 0 0 0 0 0 0 0 0 0 0 0 4 10 0 0 0 16 63 58 30 0 2 0 0 0 0 0 2 47 48 52 48 73 79 56 22 60 86 97 100 91 90
0 0 94 38 27 5 81 4 0 0 0 0 0 0 0 0 0 6 98 5 0 0 0 1 2 1 4 0 0 0 0 0 0 0 2 9 64 70 55 40 77 31 19 30 44 52 39 23 37
0 99 50 5 5 47 5 1 0 0 0 5 0 0 0 0 14 100 53 1 0 0 0 0 0 3 0 0 0 0 0 0 0 0 6 44 76 46 48 48 42 30 34 6 29 52 69 22 6
0 4 11 3 4 2 73 4 95 0 0 0 0 0 1 53 98 84 21 0 0 0 0 0 0 0 0 0 0 0 0 0 1 5 30 100 32 44 48 25 17 31 24 28 17 15 24 45 23
0 2 0 0 0 16 37 1 92 0 26 4 58 5 9 97 99 53 0 0 0 0 0 0 0 0 0 0 0 0 0 0 5 6 36 77 79 35 4 18 8 17 14 15 11 50 55 26 20
0 0 0 5 1 4 0 9 100 4 97 100 57 26 100 100 61 1 0 0 0 0 0 0 0 0 0 0 0 0 3 5 7 0 5 43 36 15 0 2 15 13 81 99 100 100 100 100 100
0 0 3 29 0 19 72 58 100 96 100 62 14 100 100 84 5 4 0 0 0 0 0 0 0 0 0 0 0 1 11 4 4 4 4 11 26 0 11 14 13 16 31 100 84 88 100 100 100
0 0 18 1 7 71 96 100 100 100 48 96 100 98 55 21 14 1 0 0 0 0 0 0 0 0 0 0 0 15 1 8 6 0 2 10 2 0 0 10 26 26 100 72 74 100 100 100 100
0 0 0 0 8 100 100 100 100 99 86 97 100 100 100 99 5 1 0 0 0 0 0 0 0 0 0 0 11 39 6 11 16 10 7 0 0 0 1 0 6 99 100 56 84 92 100 100 100
0 0 0 0 96 100 100 100 100 93 100 94 87 86 100 5 5 5 0 0 0 0 0 0 0 0 0 0 13 46 5 32 29 36 28 5 5 2 5 5 5 100 100 100 95 100 100 100 100